QPF
0.01 0.01 0.01 0.02 0.03 0.02 0.02 0.01 0.00 0.00 0.00 0.00 0.00 0.00 0.00 0.00 0.00 0.00 0.00 0.00 0.00 0.00 0.00 0.00 0.00 0.00 0.00 0.00 0.00 0.00 0.00 0.00 0.00 0.00 0.00 0.00 0.00 0.00 0.00 0.00 0.00 0.00 0.00
0.00 0.00 0.00 0.03 0.05 0.04 0.03 0.01 0.01 0.00 0.00 0.00 0.00 0.00 0.00 0.00 0.00 0.00 0.00 0.00 0.00 0.00 0.00 0.00 0.00 0.00 0.00 0.00 0.00 0.00 0.00 0.00 0.00 0.00 0.00 0.00 0.00 0.00 0.00 0.00 0.00 0.00 0.00
0.00 0.02 0.03 0.07 0.07 0.07 0.04 0.04 0.01 0.00 0.00 0.00 0.00 0.00 0.00 0.00 0.00 0.00 0.00 0.00 0.00 0.00 0.00 0.00 0.00 0.00 0.00 0.00 0.00 0.00 0.00 0.00 0.00 0.00 0.00 0.00 0.00 0.00 0.00 0.00 0.00 0.00 0.00
0.00 0.02 0.06 0.12 0.11 0.05 0.03 0.04 0.01 0.00 0.00 0.00 0.00 0.00 0.00 0.00 0.00 0.00 0.00 0.00 0.00 0.00 0.00 0.00 0.00 0.00 0.00 0.00 0.00 0.00 0.00 0.00 0.00 0.00 0.00 0.00 0.00 0.00 0.00 0.00 0.00 0.00 0.00
0.02 0.03 0.10 0.18 0.16 0.07 0.02 0.03 0.01 0.00 0.00 0.00 0.00 0.00 0.00 0.00 0.00 0.00 0.00 0.00 0.00 0.00 0.00 0.00 0.00 0.00 0.00 0.00 0.00 0.00 0.00 0.00 0.00 0.00 0.00 0.00 0.00 0.00 0.00 0.00 0.00 0.00 0.00
0.05 0.05 0.09 0.19 0.16 0.12 0.08 0.05 0.00 0.00 0.00 0.00 0.00 0.00 0.00 0.00 0.00 0.00 0.00 0.00 0.00 0.00 0.00 0.00 0.00 0.00 0.00 0.00 0.00 0.00 0.00 0.00 0.00 0.00 0.00 0.00 0.00 0.00 0.00 0.00 0.00 0.00 0.00
0.07 0.07 0.09 0.13 0.09 0.05 0.03 0.00 0.00 0.00 0.00 0.00 0.00 0.00 0.00 0.00 0.00 0.00 0.00 0.00 0.00 0.00 0.00 0.00 0.00 0.00 0.00 0.00 0.00 0.00 0.00 0.00 0.00 0.00 0.00 0.00 0.00 0.00 0.00 0.00 0.00 0.00 0.00
0.09 0.09 0.09 0.08 0.05 0.01 0.00 0.00 0.00 0.00 0.00 0.00 0.00 0.00 0.00 0.00 0.00 0.00 0.00 0.00 0.00 0.00 0.00 0.00 0.00 0.00 0.00 0.00 0.00 0.00 0.00 0.00 0.00 0.00 0.00 0.00 0.00 0.00 0.00 0.00 0.00 0.00 0.00
0.13 0.11 0.08 0.05 0.03 0.00 0.00 0.00 0.00 0.00 0.00 0.00 0.00 0.00 0.00 0.00 0.00 0.00 0.00 0.00 0.00 0.00 0.00 0.00 0.00 0.00 0.00 0.00 0.00 0.00 0.00 0.00 0.00 0.00 0.00 0.00 0.00 0.00 0.00 0.00 0.00 0.00 0.00
0.09 0.08 0.05 0.04 0.01 0.00 0.00 0.00 0.00 0.00 0.00 0.00 0.00 0.00 0.00 0.00 0.00 0.00 0.00 0.00 0.00 0.00 0.00 0.00 0.00 0.00 0.00 0.00 0.00 0.00 0.00 0.00 0.00 0.00 0.00 0.00 0.00 0.00 0.00 0.00 0.00 0.00 0.00
0.04 0.06 0.03 0.02 0.00 0.00 0.00 0.00 0.00 0.00 0.00 0.00 0.00 0.00 0.00 0.00 0.00 0.00 0.00 0.00 0.00 0.00 0.00 0.00 0.00 0.00 0.00 0.00 0.00 0.00 0.00 0.00 0.00 0.00 0.00 0.00 0.00 0.00 0.00 0.00 0.00 0.00 0.00
0.02 0.02 0.01 0.00 0.00 0.00 0.00 0.00 0.00 0.00 0.00 0.00 0.00 0.00 0.00 0.00 0.00 0.00 0.00 0.00 0.00 0.00 0.00 0.00 0.00 0.00 0.00 0.00 0.00 0.00 0.00 0.00 0.00 0.00 0.00 0.00 0.00 0.00 0.00 0.00 0.00 0.00 0.00
0.01 0.00 0.00 0.00 0.00 0.00 0.00 0.00 0.00 0.00 0.00 0.00 0.00 0.00 0.00 0.00 0.00 0.00 0.00 0.00 0.00 0.00 0.00 0.00 0.00 0.00 0.00 0.00 0.00 0.00 0.00 0.00 0.00 0.00 0.00 0.00 0.00 0.00 0.00 0.00 0.00 0.00 0.00
0.00 0.00 0.00 0.00 0.00 0.00 0.00 0.00 0.00 0.00 0.00 0.00 0.00 0.00 0.00 0.00 0.00 0.00 0.00 0.00 0.00 0.00 0.00 0.00 0.00 0.00 0.00 0.00 0.00 0.00 0.00 0.00 0.00 0.00 0.00 0.00 0.00 0.00 0.00 0.00 0.00 0.00 0.00
0.00 0.00 0.00 0.00 0.00 0.00 0.00 0.00 0.00 0.00 0.00 0.00 0.00 0.00 0.00 0.00 0.00 0.00 0.00 0.00 0.00 0.00 0.00 0.00 0.00 0.00 0.00 0.00 0.00 0.00 0.00 0.00 0.00 0.00 0.00 0.00 0.00 0.00 0.00 0.00 0.00 0.00 0.00
0.01 0.00 0.00 0.00 0.00 0.00 0.00 0.00 0.00 0.00 0.00 0.00 0.00 0.00 0.00 0.00 0.00 0.00 0.00 0.00 0.00 0.00 0.00 0.00 0.00 0.00 0.00 0.00 0.00 0.00 0.00 0.00 0.00 0.00 0.00 0.00 0.00 0.00 0.00 0.00 0.00 0.00 0.00
0.03 0.01 0.00 0.00 0.00 0.00 0.00 0.00 0.00 0.00 0.00 0.00 0.00 0.00 0.00 0.00 0.00 0.00 0.00 0.00 0.00 0.00 0.00 0.00 0.00 0.00 0.00 0.00 0.00 0.00 0.00 0.00 0.00 0.00 0.00 0.00 0.00 0.00 0.00 0.00 0.00 0.00 0.00
0.03 0.02 0.00 0.00 0.00 0.00 0.00 0.00 0.00 0.00 0.00 0.00 0.00 0.00 0.00 0.00 0.00 0.00 0.00 0.00 0.00 0.00 0.00 0.00 0.00 0.00 0.00 0.00 0.00 0.00 0.00 0.00 0.00 0.00 0.00 0.00 0.00 0.00 0.00 0.00 0.00 0.00 0.00
0.02 0.01 0.00 0.00 0.00 0.00 0.00 0.00 0.00 0.00 0.00 0.00 0.00 0.00 0.00 0.00 0.00 0.00 0.00 0.00 0.00 0.00 0.00 0.00 0.00 0.00 0.00 0.00 0.00 0.00 0.00 0.00 0.00 0.00 0.00 0.00 0.00 0.00 0.00 0.00 0.00 0.00 0.00
0.01 0.00 0.00 0.00 0.00 0.00 0.00 0.00 0.00 0.00 0.00 0.00 0.00 0.00 0.00 0.00 0.00 0.00 0.00 0.00 0.00 0.00 0.00 0.00 0.00 0.00 0.00 0.00 0.00 0.00 0.00 0.00 0.00 0.00 0.00 0.00 0.00 0.00 0.00 0.00 0.00 0.00 0.00
0.00 0.00 0.00 0.00 0.00 0.00 0.00 0.00 0.00 0.00 0.00 0.00 0.00 0.00 0.00 0.00 0.00 0.00 0.00 0.00 0.00 0.00 0.00 0.00 0.00 0.00 0.00 0.00 0.00 0.00 0.00 0.00 0.00 0.00 0.00 0.00 0.00 0.00 0.00 0.00 0.00 0.00 0.00
0.00 0.00 0.00 0.00 0.00 0.00 0.00 0.00 0.00 0.00 0.00 0.00 0.00 0.00 0.00 0.00 0.00 0.00 0.00 0.00 0.00 0.00 0.00 0.00 0.00 0.00 0.00 0.00 0.00 0.00 0.00 0.00 0.00 0.00 0.00 0.00 0.00 0.00 0.00 0.00 0.00 0.00 0.00
0.00 0.00 0.00 0.00 0.00 0.00 0.00 0.00 0.00 0.00 0.00 0.00 0.00 0.00 0.00 0.00 0.00 0.00 0.00 0.00 0.00 0.00 0.00 0.00 0.00 0.00 0.00 0.00 0.00 0.00 0.00 0.00 0.00 0.00 0.00 0.00 0.00 0.00 0.00 0.00 0.00 0.00 0.00
0.00 0.00 0.00 0.00 0.00 0.00 0.00 0.00 0.00 0.00 0.00 0.00 0.00 0.00 0.00 0.00 0.00 0.00 0.00 0.00 0.00 0.00 0.00 0.00 0.00 0.00 0.00 0.00 0.00 0.00 0.00 0.00 0.00 0.00 0.00 0.00 0.00 0.00 0.00 0.00 0.00 0.00 0.00
0.00 0.00 0.00 0.00 0.00 0.00 0.00 0.00 0.00 0.00 0.00 0.00 0.00 0.00 0.00 0.00 0.00 0.00 0.00 0.00 0.00 0.00 0.00 0.00 0.00 0.00 0.00 0.00 0.00 0.00 0.00 0.00 0.00 0.00 0.00 0.00 0.00 0.00 0.00 0.00 0.00 0.00 0.00
0.00 0.00 0.00 0.00 0.00 0.00 0.00 0.00 0.00 0.00 0.00 0.00 0.00 0.00 0.00 0.00 0.00 0.00 0.00 0.00 0.00 0.00 0.00 0.00 0.00 0.00 0.00 0.00 0.00 0.00 0.00 0.00 0.00 0.00 0.00 0.00 0.00 0.00 0.00 0.00 0.00 0.00 0.00
MSLP
1004.82 1006.37 1007.12 1008.38 1007.93 1009.81 1010.04 1011.82 1012.26 1013.39 1014.31 1015.03 1015.52 1016.13 1016.97 1017.32 1017.44 1017.74 1018.05 1017.99 1018.51 1018.88 1019.25 1020.19 1020.19 1020.33 1020.28 1020.08 1020.33 1020.39 1020.24 1020.34 1020.33 1019.41 1019.08 1018.12 1017.56 1017.10 1016.39 1015.98 1015.38 1014.72 1014.26
1005.14 1006.33 1007.00 1008.22 1008.28 1010.09 1010.74 1011.91 1012.08 1013.69 1014.24 1014.65 1015.78 1016.50 1016.97 1017.44 1017.45 1017.94 1018.05 1018.26 1018.76 1019.65 1019.97 1020.49 1020.62 1020.60 1020.51 1020.66 1020.41 1020.85 1020.34 1020.73 1020.55 1019.91 1019.21 1018.48 1017.96 1017.04 1016.67 1016.29 1015.75 1015.10 1014.58
1005.00 1006.14 1007.24 1007.54 1009.00 1010.14 1011.16 1011.76 1012.42 1013.77 1014.05 1015.21 1015.85 1016.54 1017.34 1017.39 1017.63 1017.66 1018.21 1018.36 1019.14 1019.83 1020.37 1020.89 1020.93 1020.67 1020.58 1021.08 1020.71 1020.89 1020.63 1020.95 1020.56 1020.24 1019.51 1018.91 1018.14 1017.47 1016.81 1016.31 1015.62 1015.02 1014.60
1004.90 1006.44 1007.14 1008.40 1009.32 1010.33 1011.27 1011.46 1012.74 1013.28 1013.90 1015.03 1015.77 1016.74 1017.55 1017.66 1017.33 1017.77 1018.10 1018.81 1019.60 1020.16 1020.53 1020.96 1021.12 1020.78 1020.47 1020.84 1021.20 1020.75 1020.83 1020.68 1020.46 1020.33 1019.87 1019.30 1018.55 1017.72 1017.44 1016.72 1015.88 1015.19 1014.77
1004.55 1006.01 1007.20 1008.44 1009.55 1010.24 1010.93 1011.72 1012.31 1013.24 1014.11 1015.20 1015.95 1016.56 1017.31 1017.99 1017.35 1017.93 1018.23 1018.91 1019.77 1020.54 1020.97 1021.08 1021.00 1020.63 1020.36 1020.93 1021.36 1020.98 1021.10 1020.60 1020.26 1020.01 1019.81 1019.46 1018.83 1018.26 1018.05 1017.47 1016.80 1015.82 1015.09
1003.90 1005.46 1007.17 1008.14 1009.23 1010.14 1010.97 1011.36 1012.61 1013.89 1014.58 1015.33 1015.91 1016.64 1017.48 1017.90 1017.49 1018.00 1018.45 1019.14 1019.94 1020.73 1021.32 1021.16 1020.92 1020.95 1020.52 1021.01 1021.06 1021.09 1021.05 1020.50 1020.16 1020.09 1020.06 1019.55 1019.05 1018.80 1018.48 1018.14 1017.42 1016.58 1015.55
1004.43 1005.19 1007.13 1007.98 1009.02 1010.08 1010.60 1011.86 1013.04 1014.20 1014.56 1015.34 1016.14 1016.91 1017.65 1018.35 1017.87 1018.45 1018.59 1019.27 1020.38 1020.88 1021.32 1021.20 1021.14 1021.18 1021.28 1021.47 1021.41 1021.44 1020.97 1020.39 1020.01 1020.08 1019.95 1019.73 1019.21 1019.10 1019.05 1018.23 1017.77 1017.29 1016.64
1003.49 1004.41 1006.19 1007.88 1007.92 1009.58 1011.05 1012.15 1013.22 1014.17 1014.65 1015.39 1016.34 1017.14 1017.71 1018.64 1018.47 1018.67 1019.15 1019.48 1020.76 1021.24 1021.31 1021.18 1021.43 1021.48 1021.82 1021.80 1021.67 1021.57 1021.14 1020.58 1020.07 1019.98 1020.30 1020.12 1019.80 1019.64 1019.34 1018.75 1018.38 1017.90 1016.93
1003.95 1004.71 1005.73 1007.13 1008.27 1009.88 1011.21 1012.50 1013.39 1014.08 1015.04 1015.79 1016.35 1017.32 1017.65 1019.02 1018.61 1019.08 1019.25 1020.02 1021.09 1021.24 1021.47 1021.48 1021.43 1021.98 1022.40 1022.01 1021.65 1021.52 1021.04 1020.81 1020.40 1020.34 1020.26 1020.11 1019.96 1020.01 1019.69 1018.82 1018.67 1018.12 1017.30
1003.53 1004.27 1005.52 1006.86 1008.15 1009.77 1010.67 1012.20 1013.20 1013.99 1015.35 1016.19 1016.76 1017.47 1018.33 1018.86 1019.04 1019.08 1019.49 1020.20 1021.04 1021.11 1021.69 1021.83 1021.98 1022.44 1022.53 1022.34 1021.83 1021.84 1021.23 1021.42 1020.83 1020.57 1020.14 1019.88 1019.81 1019.82 1019.89 1019.95 1019.59 1018.85 1018.12
1003.87 1005.11 1006.35 1007.27 1008.46 1009.32 1011.01 1012.41 1013.70 1014.70 1015.54 1016.23 1017.32 1018.22 1018.55 1019.15 1019.17 1019.39 1019.60 1020.29 1020.47 1020.98 1021.67 1021.99 1022.63 1022.81 1022.61 1022.79 1022.19 1022.15 1021.84 1021.86 1021.39 1021.20 1020.87 1020.44 1020.34 1020.36 1020.19 1019.95 1019.73 1019.50 1018.90
1003.95 1005.89 1006.97 1007.11 1008.40 1010.18 1011.14 1012.83 1014.13 1014.82 1015.63 1016.62 1017.92 1018.56 1018.95 1019.47 1019.31 1019.68 1020.12 1020.32 1020.27 1021.32 1021.89 1022.43 1022.96 1022.93 1023.01 1022.85 1022.54 1022.38 1021.78 1021.72 1021.57 1021.51 1021.69 1021.66 1021.45 1021.04 1020.69 1020.26 1020.14 1019.98 1019.57
1003.39 1005.31 1006.91 1007.34 1009.37 1010.40 1011.09 1012.39 1013.82 1015.04 1015.94 1016.97 1018.19 1018.29 1019.46 1019.70 1019.58 1020.04 1020.45 1020.56 1021.03 1021.50 1021.88 1023.00 1023.09 1023.23 1023.36 1022.90 1022.88 1022.36 1021.87 1021.96 1022.31 1022.18 1022.41 1022.52 1022.46 1021.96 1021.19 1020.45 1020.03 1019.98 1019.38
1004.01 1005.13 1007.22 1008.18 1010.22 1011.02 1011.63 1012.45 1013.03 1014.90 1015.89 1016.82 1017.86 1018.51 1019.51 1019.38 1019.99 1020.26 1020.93 1021.04 1021.72 1021.91 1022.55 1023.06 1023.18 1023.60 1023.62 1023.36 1023.14 1022.66 1022.58 1022.89 1022.90 1023.05 1022.87 1022.81 1022.62 1022.22 1021.82 1021.34 1020.80 1020.54 1019.94
1003.95 1004.43 1007.50 1009.12 1009.79 1011.51 1012.53 1012.28 1013.63 1014.59 1015.38 1016.35 1017.33 1018.10 1018.84 1019.51 1020.21 1020.20 1020.92 1021.58 1022.01 1022.25 1022.56 1022.90 1023.48 1023.72 1023.84 1023.64 1023.48 1023.43 1023.21 1023.48 1023.48 1023.49 1023.13 1023.02 1022.91 1022.78 1022.45 1021.95 1021.59 1021.54 1021.07
1004.12 1005.74 1007.48 1008.54 1010.12 1011.57 1012.21 1013.68 1014.34 1014.92 1015.86 1016.29 1017.04 1017.84 1018.69 1019.30 1019.93 1020.74 1021.73 1022.05 1022.31 1022.53 1022.66 1023.34 1023.86 1024.08 1024.05 1023.86 1023.93 1023.75 1023.94 1024.11 1024.21 1023.94 1023.55 1023.53 1023.65 1023.51 1022.96 1022.42 1022.18 1022.23 1021.89
1004.25 1005.83 1007.35 1008.89 1010.10 1011.31 1012.10 1013.55 1014.51 1016.20 1016.43 1016.89 1017.52 1017.81 1018.77 1019.75 1020.36 1021.32 1022.10 1022.55 1022.47 1022.65 1023.09 1024.03 1024.09 1024.28 1024.29 1024.01 1024.31 1024.20 1024.37 1024.63 1024.61 1024.47 1024.24 1024.04 1023.92 1023.82 1023.47 1023.27 1022.96 1022.86 1022.55
1004.60 1006.05 1007.46 1008.77 1009.94 1010.53 1012.04 1013.45 1014.09 1015.38 1017.03 1018.22 1018.51 1018.81 1019.28 1020.40 1021.11 1021.69 1022.18 1022.38 1023.00 1022.98 1023.41 1024.12 1024.47 1024.68 1024.58 1024.45 1024.61 1024.69 1024.84 1024.91 1024.91 1024.95 1024.77 1024.89 1024.94 1024.71 1024.08 1023.84 1023.59 1023.42 1023.41
1005.36 1006.62 1007.70 1008.96 1009.79 1011.07 1012.58 1013.61 1014.40 1015.88 1017.13 1018.22 1018.97 1019.77 1020.39 1021.13 1021.88 1022.25 1022.17 1022.27 1022.94 1023.49 1023.90 1024.56 1024.51 1024.80 1024.68 1024.69 1025.28 1025.35 1025.52 1025.39 1025.14 1025.12 1025.26 1025.19 1025.22 1024.84 1024.60 1024.56 1024.38 1024.17 1023.99
1006.13 1007.07 1007.92 1009.07 1010.44 1012.03 1013.14 1013.62 1014.91 1016.24 1017.33 1018.02 1018.98 1019.97 1020.95 1021.30 1021.80 1022.16 1022.51 1022.68 1023.18 1023.79 1024.45 1024.61 1024.91 1025.00 1025.00 1025.35 1025.52 1025.69 1025.76 1025.56 1025.46 1025.78 1025.84 1025.63 1025.80 1025.77 1025.27 1024.93 1024.84 1024.79 1024.65
1006.79 1007.91 1008.79 1009.78 1011.10 1012.06 1012.90 1014.04 1015.25 1016.16 1017.08 1018.06 1019.05 1020.03 1020.14 1020.43 1021.27 1021.75 1022.47 1023.03 1023.22 1024.24 1024.66 1024.74 1025.21 1025.09 1025.15 1025.75 1026.14 1026.26 1026.28 1026.12 1025.98 1026.02 1026.17 1026.23 1026.25 1026.20 1025.90 1025.62 1025.35 1025.02 1025.20
1007.38 1008.06 1009.08 1010.15 1011.19 1012.24 1013.25 1014.25 1015.21 1016.16 1017.15 1018.21 1019.35 1020.12 1020.06 1020.35 1021.03 1021.84 1022.47 1023.13 1023.65 1024.01 1024.28 1024.85 1025.52 1025.72 1025.94 1026.12 1026.60 1026.64 1026.69 1026.49 1026.38 1026.63 1026.74 1026.54 1026.46 1026.42 1025.99 1025.81 1025.72 1025.52 1025.52
1007.87 1008.54 1009.56 1010.77 1011.57 1012.91 1013.94 1014.59 1015.49 1016.25 1017.12 1017.93 1018.59 1019.27 1019.95 1020.47 1021.47 1022.36 1022.99 1023.37 1023.81 1024.32 1024.91 1025.35 1025.51 1025.64 1026.64 1026.90 1027.03 1026.98 1026.75 1026.83 1026.66 1026.69 1026.81 1026.92 1026.89 1026.73 1026.58 1026.35 1026.14 1026.11 1026.04
1008.32 1008.89 1009.66 1010.75 1012.11 1013.13 1013.92 1014.85 1015.47 1016.15 1016.64 1017.29 1018.40 1019.17 1019.79 1020.60 1021.44 1022.38 1023.01 1023.67 1024.22 1024.49 1024.67 1025.51 1025.79 1025.88 1026.68 1026.97 1027.23 1027.36 1027.17 1027.15 1027.04 1027.32 1027.18 1027.25 1027.38 1027.15 1026.87 1026.67 1026.56 1026.58 1026.57
1008.49 1009.18 1010.00 1011.01 1012.29 1012.99 1013.75 1014.63 1015.33 1015.63 1016.50 1017.45 1018.39 1019.41 1020.09 1020.82 1021.40 1021.98 1022.91 1023.73 1024.41 1024.59 1025.19 1025.66 1026.05 1026.51 1027.08 1027.17 1027.22 1027.25 1027.21 1027.21 1027.09 1027.46 1027.63 1027.38 1027.38 1027.45 1027.52 1027.26 1026.99 1026.83 1026.84
1008.87 1009.68 1010.58 1011.42 1012.25 1013.06 1013.73 1014.37 1015.03 1015.82 1016.55 1017.40 1018.27 1019.18 1019.86 1020.44 1021.46 1022.25 1023.00 1023.79 1024.24 1025.04 1025.65 1025.84 1026.42 1027.04 1027.43 1027.64 1027.50 1027.52 1027.54 1027.40 1027.31 1027.34 1027.39 1027.59 1027.55 1027.77 1027.76 1027.77 1027.58 1027.43 1027.27
Thickness
5727 5714 5714 5707 5719 5712 5718 5710 5712 5707 5704 5703 5703 5698 5691 5688 5690 5688 5686 5686 5681 5677 5672 5661 5658 5651 5647 5642 5633 5624 5620 5612 5605 5606 5598 5597 5593 5587 5582 5576 5573 5571 5565
5710 5704 5706 5700 5706 5700 5704 5702 5708 5699 5699 5702 5694 5690 5688 5684 5686 5683 5681 5679 5674 5666 5662 5655 5650 5646 5641 5632 5628 5617 5617 5603 5599 5598 5593 5591 5585 5584 5577 5569 5565 5562 5558
5704 5701 5690 5693 5691 5693 5695 5698 5700 5693 5696 5690 5689 5685 5679 5682 5679 5680 5675 5675 5667 5661 5655 5647 5643 5641 5636 5625 5621 5615 5610 5598 5597 5592 5590 5585 5583 5578 5572 5566 5564 5559 5553
5700 5692 5692 5686 5685 5687 5688 5695 5693 5692 5693 5687 5684 5676 5672 5673 5678 5674 5673 5666 5659 5654 5648 5641 5637 5636 5633 5623 5613 5612 5603 5599 5595 5588 5584 5581 5578 5576 5566 5560 5558 5555 5549
5698 5693 5691 5684 5681 5684 5686 5689 5690 5686 5684 5679 5675 5676 5670 5665 5673 5668 5668 5662 5653 5647 5639 5637 5635 5633 5630 5618 5607 5606 5597 5597 5594 5589 5582 5575 5573 5568 5559 5554 5548 5546 5543
5694 5690 5680 5681 5683 5681 5683 5686 5680 5674 5674 5671 5672 5670 5663 5662 5667 5664 5660 5655 5649 5639 5631 5632 5631 5625 5623 5612 5606 5600 5595 5596 5592 5585 5577 5574 5569 5561 5552 5545 5541 5536 5535
5683 5684 5678 5681 5680 5676 5678 5675 5670 5666 5668 5666 5664 5661 5656 5653 5659 5656 5656 5650 5639 5631 5627 5627 5625 5621 5612 5605 5601 5594 5593 5593 5590 5582 5576 5569 5565 5556 5546 5542 5535 5528 5522
5690 5690 5681 5678 5671 5669 5668 5665 5660 5660 5661 5660 5656 5652 5652 5646 5648 5650 5646 5644 5631 5623 5623 5622 5617 5613 5604 5600 5598 5592 5590 5589 5588 5582 5570 5562 5556 5548 5540 5535 5526 5517 5512
5678 5681 5681 5680 5676 5666 5661 5657 5654 5654 5652 5650 5651 5646 5648 5637 5643 5641 5641 5635 5624 5620 5617 5614 5611 5604 5595 5595 5595 5591 5590 5586 5582 5575 5568 5561 5555 5543 5534 5530 5519 5514 5510
5676 5678 5678 5674 5667 5660 5660 5653 5651 5650 5644 5642 5642 5640 5636 5634 5635 5637 5634 5629 5619 5617 5611 5606 5601 5594 5590 5589 5591 5585 5587 5578 5575 5569 5565 5558 5551 5542 5531 5519 5510 5508 5502
5665 5662 5660 5660 5657 5657 5650 5644 5641 5640 5638 5635 5632 5628 5629 5626 5629 5629 5628 5623 5621 5615 5605 5599 5590 5586 5586 5581 5583 5580 5579 5571 5567 5561 5556 5551 5543 5534 5524 5516 5508 5498 5493
5655 5647 5647 5654 5650 5642 5643 5636 5632 5632 5631 5626 5620 5619 5621 5619 5621 5621 5617 5617 5617 5604 5596 5589 5582 5582 5579 5577 5575 5574 5576 5570 5563 5556 5546 5538 5531 5526 5519 5513 5503 5492 5486
5650 5640 5634 5641 5633 5635 5638 5632 5627 5624 5622 5617 5614 5618 5611 5611 5615 5611 5609 5610 5603 5595 5590 5577 5576 5575 5570 5571 5569 5571 5569 5563 5553 5547 5538 5528 5520 5516 5512 5508 5500 5491 5486
5639 5634 5625 5626 5620 5622 5623 5623 5627 5619 5616 5614 5611 5610 5603 5609 5606 5606 5601 5598 5589 5585 5577 5571 5572 5566 5563 5563 5563 5564 5560 5552 5544 5536 5531 5524 5516 5511 5505 5499 5493 5484 5481
5632 5637 5619 5613 5615 5608 5607 5618 5618 5616 5616 5614 5611 5608 5604 5602 5599 5600 5594 5586 5582 5577 5573 5571 5565 5561 5558 5557 5556 5553 5550 5542 5535 5529 5526 5519 5512 5504 5499 5494 5488 5477 5473
5624 5618 5613 5611 5603 5598 5603 5601 5603 5609 5608 5609 5607 5603 5599 5597 5594 5587 5579 5575 5571 5569 5569 5563 5556 5552 5551 5551 5547 5545 5539 5532 5525 5522 5519 5512 5502 5495 5492 5490 5483 5472 5466
5620 5614 5605 5601 5598 5598 5603 5600 5602 5593 5596 5597 5596 5597 5593 5587 5583 5576 5569 5564 5565 5564 5560 5551 5549 5546 5543 5544 5539 5536 5531 5523 5517 5513 5509 5504 5497 5491 5486 5480 5475 5466 5461
5608 5602 5599 5597 5596 5602 5598 5594 5600 5597 5587 5580 5581 5582 5581 5574 5569 5565 5560 5558 5556 5557 5552 5545 5541 5536 5536 5535 5530 5526 5521 5516 5510 5505 5500 5493 5484 5480 5479 5474 5469 5461 5453
5595 5594 5593 5591 5594 5592 5587 5587 5591 5585 5580 5574 5571 5568 5564 5561 5556 5553 5553 5557 5550 5545 5541 5534 5534 5531 5531 5528 5518 5515 5510 5506 5504 5499 5493 5486 5478 5476 5472 5466 5460 5451 5445
5589 5587 5589 5586 5584 5577 5578 5584 5580 5573 5569 5569 5566 5560 5553 5554 5552 5548 5547 5545 5541 5536 5528 5527 5524 5523 5522 5516 5511 5507 5503 5499 5496 5489 5482 5478 5470 5463 5463 5460 5454 5447 5440
5584 5579 5578 5580 5577 5575 5577 5573 5569 5567 5565 5562 5558 5551 5553 5556 5549 5547 5541 5536 5535 5524 5520 5520 5515 5516 5514 5507 5499 5495 5491 5489 5486 5482 5475 5468 5461 5456 5453 5450 5446 5443 5432
5576 5579 5578 5576 5574 5572 5569 5565 5563 5561 5558 5553 5546 5544 5547 5550 5545 5538 5533 5529 5524 5520 5518 5513 5506 5505 5499 5495 5488 5484 5481 5480 5477 5470 5464 5460 5455 5450 5448 5444 5440 5436 5428
5569 5572 5570 5567 5566 5557 5556 5557 5556 5555 5553 5550 5548 5546 5543 5541 5533 5527 5523 5519 5516 5512 5507 5502 5500 5498 5488 5481 5478 5475 5473 5470 5469 5464 5458 5451 5446 5442 5438 5434 5431 5426 5419
5561 5564 5564 5561 5556 5554 5553 5550 5549 5548 5550 5548 5542 5538 5536 5532 5525 5519 5515 5511 5507 5504 5501 5493 5489 5487 5478 5475 5470 5466 5465 5462 5459 5451 5448 5442 5435 5432 5430 5427 5423 5416 5409
5554 5556 5556 5554 5549 5549 5547 5544 5543 5546 5542 5536 5533 5528 5527 5523 5519 5516 5510 5503 5497 5494 5489 5484 5480 5473 5467 5466 5463 5459 5458 5455 5451 5444 5437 5434 5430 5423 5418 5416 5414 5409 5402
5546 5546 5544 5544 5542 5540 5538 5538 5537 5534 5532 5528 5526 5523 5521 5518 5510 5505 5500 5494 5490 5482 5476 5474 5467 5461 5456 5452 5452 5451 5447 5445 5442 5439 5432 5424 5421 5416 5411 5406 5402 5396 5392